www.pogodaiklimat.ru

Погода и климат >> Архив погоды >> Россия >> Крым >> Почтовое


ПОГОДА в Почтовом

  • Прогноз погоды в Почтовом
  • Монитор погоды в Почтовом

АРХИВ ПОГОДЫ в Почтовом

Время (UTC), дата Ветер
(напр.,м/с)
 
Видим.   Явления Облачность Т
(С)
Тd
(С)
f
(%)
Тe
(С)
Тes
(С)
Комфортность P
(гПа)
Po
(гПа)
Тmin
(С)
Tmax
(С)
R
(мм)
R24
(мм)
S
(см)
21 15.04 З 1 1000 м морось 10/10 300 м
[St]
+5.8 +5.3 97 +4 +4 1013.4 991.9
00 16.04 ЮЗ 2 1000 м слаб. морось 10/10 300 м
[St]
+5.9 +5.2 95 +3 +3 1013.6 992.1
03 16.04 ЮЗ 2 1000 м дымка 10/10 300 м
[St]
+5.8 +4.9 94 +3 +3 1013.9 992.4 +5.5 1
06 16.04 Ю 2 20 км {морось} 10/10 600 м
[Cb calv]
+6.7 +4.1 83 +4 +4 1014.2 992.7 +5.5 1
09 16.04 ЮЗ 4 20 км 9/6 600 м
[Sc Ac trans]
+9.6 +4.4 70 +7 +9 1014.3 993.0
12 16.04 ЮЗ 4 20 км 6/6 600 м
[Sc]
+11.0 +3.3 59 +9 +12 1013.6 992.5
15 16.04 З 4 20 км 6/6 600 м
[Sc]
+9.0 +0.5 55 +6 +7 1014.6 993.3
18 16.04 штиль 0 20 км 9/9 1000 м
[Sc]
+6.3 +4.0 85 +5 +5 1016.0 994.5 +11.9
21 16.04 З 1 20 км 10/10 600 м
[Sc]
+6.3 +4.5 88 +5 +5 1015.7 994.2
00 17.04 штиль 0 20 км 10/10 600 м
[Sc]
+6.1 +4.5 89 +5 +5 1015.2 993.7
03 17.04 штиль 0 10 км 10/10 600 м
[Sc]
+5.9 +4.5 91 +5 +5 1015.1 993.5 +5.5
06 17.04 С 1 20 км 10/10 600 м
[Sc]
+7.7 +4.2 78 +7 +7 1015.6 994.2 +5.5
09 17.04 СВ 3 20 км 10/10 600 м
[Sc]
+9.7 +4.5 70 +8 +8 1016.4 995.1
12 17.04 С 2 20 км 10/10 600 м
[Sc]
+10.9 +5.0 67 +10 +10 1016.7 995.5
15 17.04 СЗ 1 10 км слаб. ливневой дождь 10/10 600 м
[Cb cap]
+8.9 +7.2 89 +8 +8 1018.0 996.6 0.4
18 17.04 ЮВ 1 1000 м слаб. ливневой дождь 10/10 300 м
[Cb cap]
+8.5 +7.9 96 +8 +8 1018.5 997.1 +11.4 1
21 17.04 СВ 3 20 км {ливн. осадки} 9/9 600 м
[Cb calv]
+7.9 +6.4 90 +5 +5 1019.4 997.9
00 18.04 СВ 3 20 км {ливн. осадки} 10/10 600 м
[Sc]
+7.4 +4.2 80 +5 +5 1019.9 998.4
03 18.04 СВ 2 20 км 9/9 600 м
[Sc]
+6.6 +4.3 85 +4 +4 1020.1 998.5 +6.6 0.7
06 18.04 СВ 3 20 км в посл. час ливневой дождь 9/9 600 м
[Cb calv]
+6.3 +4.7 89 +3 +4 1021.2 999.6 +5.6 0.9
09 18.04 СВ 5
{10}
20 км 9/9 600 м
[Sc]
+6.5 +1.8 72 +3 +3 1022.3 1000.6
12 18.04 СВ 4
{11}
20 км {ливн. осадки} 9/9 600 м
[Cb calv]
+6.1 +1.6 73 +2 +3 1022.3 1000.6
15 18.04 В 4 20 км 10/10 600 м
[Cb calv]
+5.4 -0.1 68 +2 +2 1022.1 1000.3 0.9
18 18.04 СВ 3 10 км слаб. ливневой дождь 10/10 600 м
[Cb cap]
+4.0 +1.7 85 0 0 1023.3 996.2 +7.6
21 18.04 штиль 0 10 км слаб. ливневой дождь 10/10 600 м
[Cb cap]
+4.6 +3.4 92 +3 +3 1022.0 1000.2
00 19.04 С 3 20 км {ливн. осадки} 8/8 600 м
[Sc]
+2.9 +1.4 90 -1 -1 1021.0 999.1
03 19.04 С 2 20 км 8/8 600 м
[Sc]
+3.2 +1.9 91 0 0 1020.2 998.3 +2.7 2
06 19.04 С 3 20 км 10/3 600 м
[Sc Ci sp]
+5.8 +0.4 68 +3 +6 1020.2 998.5 +2.6 1
09 19.04 СВ 5-10
{10}
20 км 10/8 600 м
[Sc Ci fib]
+8.2 -3.9 42 +5 +6 1020.3 998.8
12 19.04 СВ 5-11
{10}
20 км 9/8 600 м
[Sc Ac trans Ci fib]
+8.8 -6.1 34 +6 +7 1020.9 999.4
15 19.04 СВ 4
{11}
20 км 9/4 600 м
[Sc Ci sp]
+7.0 -5.1 42 +4 +5 1021.9 1000.3
18 19.04 СВ 4 20 км 8/3 600 м
[Sc Ci sp]
+4.2 -1.2 68 0 0 1022.9 1001.0 +9.7
21 19.04 С 3 10 км слаб. дождь 10/10 300 м
[Frnb Ns]
+3.1 +1.8 91 -1 -1 1022.5 1000.6
00 20.04 С 2 10 км слаб. дождь 10/10 300 м
[Frnb Ns]
+3.1 +2.1 93 -0 -0 1021.0 999.1
03 20.04 СВ 4 10 км слаб. дождь 10/10 300 м
[Frnb Ns]
+3.7 +2.7 93 -1 -1 1019.6 997.8 +2.6 5
06 20.04 СВ 4 20 км в посл. час дождь 10/8 600 м
[Sc As op]
+5.9 +4.7 92 +2 +2 1019.5 997.9 +2.6 5
09 20.04 В 5-10
{11}
20 км 9/6 600 м
[Sc diur, vesp As trans]
+8.3 -1.8 49 +5 +7 1019.8 998.3
12 20.04 СВ 6
{11}
20 км 9/9 600 м
[Sc Ci fib]
+8.7 -0.3 53 +5 +6 1020.7 999.2
15 20.04 СВ 6-12
{12}
20 км 8/3 600 м
[Cu med, cong Ci fib]
+8.8 -1.5 48 +5 +6 1021.0 999.5 0.5
18 20.04 СВ 1
{12}
20 км 1/0
[Ac lent]
+5.8 -2.5 55 +5 +5 1022.3 1000.6 +9.0
21 20.04 штиль 0 20 км 3/0
[Ac trans Ci fib]
+3.0 -0.2 79 +2 +2 1022.6 1000.6
00 21.04 штиль 0 20 км ясно 0.0 -1.1 92 -1 -1 1022.1 999.9
03 21.04 В 1 20 км 1/0
[Ac lent]
-0.8 -1.4 96 -3 -3 1022.1 999.9 -1.0
06 21.04 СВ 3 20 км 3/3 600 м
[Sc]
+8.3 +3.0 69 +6 +10 1021.9 1000.4 -1.0
09 21.04 СВ 5
{11}
20 км 3/3 600 м
[Cu hum]
+12.8 -9.5 20 +11 +17 1021.1 999.9
12 21.04 СВ 5
{11}
20 км 3/3 600 м
[Cu hum]
+13.4 -7.5 23 +12 +16 1020.5 999.4
15 21.04 СВ 5
{13}
20 км ясно +12.1 -8.7 22 +10 +11 1021.0 999.7
18 21.04 СВ 2
{12}
20 км ясно +6.8 -6.0 40 +5 +5 1022.4 1000.7 +13.7
21 21.04 штиль 0 20 км 3/1 600 м
[Sc Ac trans]
+1.8 -1.3 80 +1 +1 1022.4 1000.4
00 22.04 штиль 0 20 км 4/4 600 м
[Sc]
+2.2 -0.9 80 +1 +1 1021.8 999.8
03 22.04 штиль 0 20 км 3/3 600 м
[Sc]
-0.8 -2.0 92 -2 -2 1022.4 1000.1 -0.8
06 22.04 50 км н/о +10.6 +2.2 56 +9 +14 1021.9 1000.5 -0.8
09 22.04 В 6-12
{13}
50 км 8/8 600 м
[Sc]
+14.0 -1.1 35 +12 +14 1021.8 1000.7
12 22.04 СВ 6-13
{13}
50 км 3/3 600 м
[Sc]
+14.8 -6.5 22 +13 +17 1021.8 1000.7
15 22.04 СВ 4
{13}
20 км 4/4 600 м
[Sc]
+13.1 -1.5 36 +12 +13 1022.8 1001.6

 

Местоположение метеостанции Почтовое (Крым, Россия): широта 44.83 долгота 33.95 высота над уровнем моря 176 м.

В архиве по умолчанию представлена погода в Почтовом за последнюю неделю. Архивные данные за месяц целиком и за предыдущие месяцы, начиная с января 2011 года, Вы можете получить, выбрав интересующий диапазон дат из раскрывающегося списка и нажав кнопку "Ввод!".


*Определитесь, кто Вы:
робот инопланетянин человек

Внимание! Время в таблицах - всемирное. Для получения местного времени необходимо прибавить поправку, которая равна 3 ч.

Смотрите также архив погоды в соседних городах и на ближайших метеорологических станциях:

Погода в Симферополе город (Крым, Россия) (19 км)
Погода в Симферополе (Крым, Россия) (22 км)
Погода на Ангарском Перевале (Крым, Россия) (33 км)
Погода в Алуште (Крым, Россия) (40 км)
Погода в Севастополе (город Севастополь, Россия) (41 км)
Погода на Ай-Петри (Крым, Россия) (41 км)
Погода в Никитском саду (Крым, Россия) (42 км)
Погода в Ялте (Крым, Россия) (43 км)
Погода в Херсонесском Маяке (город Севастополь, Россия) (53 км)
Погода в Белогорске (Крым, Россия) (57 км)

Пояснения к столбцам:

Ветер - указаны скорость ветра в м/с - средняя за 10 мин, порывы в срок и между сроками (в фигурных скобках) и направление, откуда дует ветер: С - северный, СВ - северо-восточный, В - восточный, ЮВ - юго-восточный, Ю - южный, ЮЗ - юго-западный, З - западный, СЗ - северо-западный.
Видимость - горизонтальная дальность видимости в метрах или километрах. При видимости от 1 до 10 км при отсутствии осадков обычно наблюдается дымка, при ухудшении видимости до 1 км и менее - туман. В сухую погоду видимость может ухудшаться дымом, пылью или мглою.
Явления - указаны атмосферные явления, наблюдавшиеся в срок или в последний час перед сроком; фигурными скобками обозначены явления, наблюдавшиеся между сроками (за 1-3 часа до срока); квадратными скобками обозначены град или гололедные отложения с указанием их диаметра в мм.
Облачность - указаны через наклонную черту общая и нижняя облачность в баллах и высота нижней границы облаков в метрах; квадратными скобками обозначены формы облаков: Ci - перистые, Cs - перисто-слоистые, Cc - перисто-кучевые, Ac - высококучевые, As - высокослоистые, Sc - слоисто-кучевые, Ns - слоисто-дождевые, Cu - кучевые, Cb - кучево-дождевые. Подробнее классификацию облаков см. в Атласе облаков (PDF).
T - Температура воздуха - температура, измеренная на высоте 2 м над землей.
Td - Температура точки росы - температура, при понижении до которой содержащийся в воздухе водяной пар достигнет насыщения.
f - Относительная влажность воздуха - влажноcть воздуха, измеренная на высоте 2 м над землей.
Te - Эффективная температура - температура, которую ощущает одетый по сезону человек в тени. Характеристика душности погоды. При расчете учитывается влияние влажности воздуха и скорости ветра на теплоощущения человека.
Tes - Эффективная температура на солнце - температура, которую ощущает человек, с поправкой на солнечный нагрев. Характеристика знойности погоды. Зависит от высоты солнца над горизонтом, облачности и скорости ветра. Ночью, в пасмурную погоду, а также при ветре 12 м/с и более поправка равна нулю.
P - Атмосферное давление - приведенное к уровню моря атмосферное давление.
Po - Атмосферное давление - измеренное на уровне метеостанции атмосферное давление.
Tmin - Минимальная температура - минимум температуры воздуха на высоте 2 м над землей.
Tmax - Максимальная температура - максимум температуры воздуха на высоте 2 м над землей.
R - Количество осадков - Количество выпавших осадков за период времени, мм. При наведении курсора мыши на число - период времени, за который выпало указанное количество осадков.
R24 - Количество осадков - Количество выпавших осадков за 24 часа, мм.
S - Снежный покров - Высота снежного покрова, см. При наведении курсора мыши на число - состояние снежного покрова и степень покрытия местности в баллах.